Regional Weather Roundup
Issued by NWS Sioux Falls, SD

Home | Current Version | Previous Version | Graphics & Text | Print | Product List | Glossary On
Versions: 1 2 3 4 5 6 7 8 9 10 11 12 13 14 15 16 17 18 19 20 21 22 23 24 25 26 27 28 29 30 31 32 33 34 35 36 37 38 39 40 41 42 43 44 45 46 47 48 49 50
000
ASUS43 KFSD 280702
RWRFSD

WEATHER ROUNDUP FOR SE SOUTH DAKOTA/SW MINNESOTA/NW IOWA
NATIONAL WEATHER SERVICE SIOUX FALLS SD
200 AM CDT THU APR 28 2016

NOTE: "FAIR" INDICATES FEW OR NO CLOUDS BELOW 12,000 FEET WITH NO
SIGNIFICANT WEATHER AND OR OBSTRUCTIONS TO VISIBILITY.


SDZ038>040-050-052>070-280800-
SOUTHEAST SOUTH DAKOTA

CITY           SKY/WX    TMP DP  RH WIND       PRES   REMARKS
BROOKINGS      LGT RAIN  39  37  92 E14G23    29.81R
CHAMBERLAIN    NOT AVBL
HURON          CLOUDY    41  39  93 NE13      29.86R
MADISON        CLOUDY    39  39 100 NE14      29.81R
MITCHELL       LGT RAIN  42  41  96 N12       29.83R FOG
SIOUX FALLS    LGT RAIN  41  39  93 NE12      29.77S FOG
WINNER         LGT RAIN  39  36  89 N13       29.85R FOG
YANKTON        CLOUDY    43  39  87 N10       29.75S
$$

MNZ071-072-080-081-089-090-097-098-280800-
SOUTHWEST MINNESOTA

CITY           SKY/WX    TMP DP  RH WIND       PRES   REMARKS
FAIRMONT       CLOUDY    41  32  70 NE13      29.77S
JACKSON        LGT SNOW  39  37  93 NE17      29.77R
LUVERNE        DRIZZLE   39  36  87 NE14G21   29.77S
MARSHALL       LGT RAIN  40  39  97 E16       29.84S FOG
MONTEVIDEO     CLOUDY    39  37  93 E10       29.89S
PIPESTONE      LGT RAIN  39  39 100 E10G16    29.78S
REDWOOD FALLS  LGT RAIN  40  38  93 NE9G21    29.84S FOG
TRACY          LGT RAIN  40  39  97 NE13G21   29.82S
WINDOM         LGT RAIN  39  39 100 NE12G20   29.79S
WORTHINGTON    LGT RAIN  39  38  96 NE17      29.77S
$$

IAZ001>003-012>014-020>022-031-032-NEZ013-014-SDZ071-280800-
NORTHWEST IOWA

CITY           SKY/WX    TMP DP  RH WIND       PRES   REMARKS
DENISON        CLOUDY    46  46 100 CALM      29.62R
ESTHERVILLE    LGT RAIN  40  39  97 NE17      29.75R
SIOUX CITY     LGT RAIN  45  41  86 NE17G23   29.67R
SPENCER        LGT RAIN  41  39  93 NE14      29.73S FOG
STORM LAKE     CLOUDY    43  41  93 NE22      29.67F FOG
$$

ABBREVIATIONS USED IN REMARKS
   TC - TEMPERATURE IN CELSIUS
  WCI - WIND CHILL INDEX
   HX - HEAT INDEX
  VSB - VISIBILITY





USA.gov is the U.S. government's official web portal to all federal, state and local government web resources and services.